This is the latest recevied weather packets stored in our database for station/object LRAR. If no packets are shown the sender has not sent any weather packets the latest 10 day(s).
| Time | Temp. | Humidity | Pressure | Rain* | Wind** | Luminosity | Snow |
|---|---|---|---|---|---|---|---|
| 1777710819 | 17.22° C | 39% | 1023 hPa | - | - | - | - |
| 1777709918 | 16.11° C | 42% | 1023 hPa | - | - | - | - |
| 1777709018 | 16.11° C | 42% | 1023 hPa | - | - | - | - |
| 1777708118 | 15° C | 45% | 1024 hPa | - | - | - | - |
| 1777707218 | 15° C | 45% | 1024 hPa | - | - | - | - |
| 1777706319 | 13.89° C | 44% | 1024 hPa | - | - | - | - |
| 1777705420 | 13.89° C | 44% | 1024 hPa | - | - | - | - |
| 1777704519 | 12.78° C | 44% | 1024 hPa | - | - | - | - |
| 1777703618 | 12.78° C | 44% | 1024 hPa | - | - | - | - |
| 1777702719 | 11.11° C | 54% | 1024 hPa | - | - | - | - |
| 1777701819 | 11.11° C | 54% | 1024 hPa | - | - | - | - |
| 1777700918 | 8.89° C | 62% | 1024 hPa | - | - | - | - |
| 1777700019 | 8.89° C | 62% | 1024 hPa | - | - | - | - |
| 1777699118 | 7.22° C | 76% | 1024 hPa | - | - | - | - |
| 1777698218 | 7.22° C | 76% | 1024 hPa | - | - | - | - |
| 1777697318 | 6.11° C | 81% | 1024 hPa | - | - | - | - |
| 1777696418 | 6.11° C | 81% | 1024 hPa | - | - | - | - |
| 1777695519 | 6.11° C | 66% | 1024 hPa | - | - | - | - |
| 1777694618 | 6.11° C | 66% | 1024 hPa | - | - | - | - |
| 1777693798 | 5° C | 81% | 1023 hPa | - | - | - | - |
| 1777692818 | 5° C | 81% | 1023 hPa | - | - | - | - |
| 1777691918 | 5° C | 70% | 1023 hPa | - | - | - | - |
| 1777691018 | 5° C | 70% | 1023 hPa | - | - | - | - |
| 1777690119 | 3.89° C | 75% | 1023 hPa | - | - | - | - |
| 1777689218 | 3.89° C | 75% | 1023 hPa | - | - | - | - |
* Rain since midnight (hover to see other rain measurements)
** Current wind speed in m/s (hover to see current wind gust speed)